Time,TemperatureF,DewpointF,PressureIn,WindDirection,WindDirectionDegrees,WindSpeedMPH,WindSpeedGustMPH,Humidity,HourlyPrecipIn,Conditions,Clouds,dailyrainin,SoftwareType,DateUTC
2013-08-03 00:00:00,69.0,64.3,29.92,WNW,290,0.0,0.0,85,0.00,,,0.00,Wunderground v.1.13,2013-08-03 04:00:00,
2013-08-03 00:05:00,69.0,64.3,29.92,WNW,288,0.0,1.0,85,0.00,,,0.00,Wunderground v.1.13,2013-08-03 04:05:00,
2013-08-03 00:10:00,69.0,64.3,29.92,WNW,289,0.0,1.0,85,0.00,,,0.00,Wunderground v.1.13,2013-08-03 04:10:00,
2013-08-03 00:15:00,69.0,64.3,29.92,WNW,288,0.0,1.0,85,0.00,,,0.00,Wunderground v.1.13,2013-08-03 04:15:00,
2013-08-03 00:25:00,69.0,64.3,29.92,WNW,290,0.0,1.0,85,0.00,,,0.00,Wunderground v.1.13,2013-08-03 04:25:00,
2013-08-03 00:30:00,69.0,64.3,29.92,WNW,290,0.0,1.0,85,0.00,,,0.00,Wunderground v.1.13,2013-08-03 04:30:00,
2013-08-03 00:40:00,68.9,64.5,29.92,WNW,290,0.0,1.0,86,0.00,,,0.00,Wunderground v.1.13,2013-08-03 04:40:00,
2013-08-03 00:50:00,68.9,64.5,29.92,WNW,290,0.0,1.0,86,0.00,,,0.00,Wunderground v.1.13,2013-08-03 04:50:00,
2013-08-03 00:55:00,68.9,64.5,29.92,WNW,290,0.0,1.0,86,0.00,,,0.00,Wunderground v.1.13,2013-08-03 04:55:00,
2013-08-03 01:00:00,68.9,64.5,29.92,WNW,290,0.0,1.0,86,0.00,,,0.00,Wunderground v.1.13,2013-08-03 05:00:00,
2013-08-03 01:06:00,68.9,64.5,29.92,WNW,290,0.0,1.0,86,0.00,,,0.00,Wunderground v.1.13,2013-08-03 05:06:00,
2013-08-03 01:15:00,69.0,64.6,29.92,WNW,290,0.0,1.0,86,0.00,,,0.00,Wunderground v.1.13,2013-08-03 05:15:00,
2013-08-03 01:20:00,69.1,64.7,29.92,WNW,290,0.0,1.0,86,0.00,,,0.00,Wunderground v.1.13,2013-08-03 05:20:00,
2013-08-03 01:30:00,69.2,64.8,29.92,WNW,290,0.0,1.0,86,0.00,,,0.00,Wunderground v.1.13,2013-08-03 05:30:00,
2013-08-03 01:40:00,69.3,64.9,29.92,WNW,290,0.0,1.0,86,0.00,,,0.00,Wunderground v.1.13,2013-08-03 05:40:00,
2013-08-03 01:45:00,69.2,64.8,29.92,WNW,289,0.0,1.0,86,0.00,,,0.00,Wunderground v.1.13,2013-08-03 05:45:00,
2013-08-03 01:55:00,69.1,64.7,29.92,WNW,289,0.0,1.0,86,0.00,,,0.00,Wunderground v.1.13,2013-08-03 05:55:00,
2013-08-03 02:05:00,69.1,64.7,29.92,WNW,290,0.0,2.0,86,0.00,,,0.00,Wunderground v.1.13,2013-08-03 06:05:00,
2013-08-03 02:15:00,69.0,64.6,29.92,WNW,288,0.0,1.0,86,0.00,,,0.00,Wunderground v.1.13,2013-08-03 06:15:00,
2013-08-03 02:25:00,68.8,64.8,29.92,WNW,289,0.0,2.0,87,0.00,,,0.00,Wunderground v.1.13,2013-08-03 06:25:00,
2013-08-03 02:35:00,68.8,64.8,29.92,North,355,0.0,1.0,87,0.00,,,0.00,Wunderground v.1.13,2013-08-03 06:35:00,
2013-08-03 02:40:00,68.9,64.9,29.93,NW,314,1.0,1.0,87,0.00,,,0.00,Wunderground v.1.13,2013-08-03 06:40:00,
2013-08-03 02:50:00,68.8,64.8,29.93,NW,312,1.0,1.0,87,0.00,,,0.00,Wunderground v.1.13,2013-08-03 06:50:00,
2013-08-03 02:55:00,68.9,64.9,29.92,NW,312,0.0,1.0,87,0.00,,,0.00,Wunderground v.1.13,2013-08-03 06:55:00,
2013-08-03 03:00:00,68.8,65.1,29.93,NW,312,0.0,1.0,88,0.00,,,0.00,Wunderground v.1.13,2013-08-03 07:00:00,
2013-08-03 03:05:00,68.6,64.6,29.93,WSW,250,1.0,3.0,87,0.00,,,0.00,Wunderground v.1.13,2013-08-03 07:05:00,
2013-08-03 03:15:00,68.5,64.5,29.93,NNE,22,1.0,3.0,87,0.00,,,0.00,Wunderground v.1.13,2013-08-03 07:15:00,
2013-08-03 03:20:00,68.6,64.2,29.93,WNW,298,1.0,3.0,86,0.00,,,0.00,Wunderground v.1.13,2013-08-03 07:20:00,
2013-08-03 03:25:00,68.8,64.4,29.94,SW,233,3.0,10.0,86,0.00,,,0.00,Wunderground v.1.13,2013-08-03 07:25:00,
2013-08-03 03:30:00,68.7,64.3,29.94,South,171,4.0,4.0,86,0.00,,,0.00,Wunderground v.1.13,2013-08-03 07:30:00,
2013-08-03 03:40:00,68.2,64.5,29.94,West,279,2.0,2.0,88,0.00,,,0.00,Wunderground v.1.13,2013-08-03 07:40:00,
2013-08-03 03:45:00,67.9,64.2,29.94,West,269,2.0,3.0,88,0.00,,,0.00,Wunderground v.1.13,2013-08-03 07:45:00,
2013-08-03 03:55:00,67.5,64.1,29.93,West,277,1.0,1.0,89,0.00,,,0.00,Wunderground v.1.13,2013-08-03 07:55:00,
2013-08-03 04:05:00,67.3,63.9,29.94,NNW,331,1.0,3.0,89,0.00,,,0.00,Wunderground v.1.13,2013-08-03 08:05:00,
2013-08-03 04:15:00,67.0,64.0,29.94,NNW,331,1.0,3.0,90,0.00,,,0.00,Wunderground v.1.13,2013-08-03 08:15:00,
2013-08-03 04:25:00,66.8,63.8,29.93,NNW,332,1.0,1.0,90,0.00,,,0.00,Wunderground v.1.13,2013-08-03 08:25:00,
2013-08-03 04:30:00,66.8,63.8,29.94,NNW,332,0.0,3.0,90,0.00,,,0.00,Wunderground v.1.13,2013-08-03 08:30:00,
2013-08-03 04:35:00,66.7,64.0,29.93,NNW,332,0.0,3.0,91,0.00,,,0.00,Wunderground v.1.13,2013-08-03 08:35:00,
2013-08-03 04:44:00,66.6,63.9,29.93,NNW,332,0.0,3.0,91,0.00,,,0.00,Wunderground v.1.13,2013-08-03 08:44:00,
2013-08-03 04:50:00,66.6,63.9,29.94,NNW,332,0.0,3.0,91,0.00,,,0.00,Wunderground v.1.13,2013-08-03 08:50:00,
2013-08-03 05:00:00,66.4,63.7,29.93,NNW,332,0.0,3.0,91,0.00,,,0.00,Wunderground v.1.13,2013-08-03 09:00:00,
2013-08-03 05:05:00,66.3,63.6,29.94,NNW,331,0.0,0.0,91,0.00,,,0.00,Wunderground v.1.13,2013-08-03 09:05:00,
2013-08-03 05:14:00,66.2,63.5,29.94,NNW,332,0.0,0.0,91,0.00,,,0.00,Wunderground v.1.13,2013-08-03 09:14:00,
2013-08-03 05:20:00,66.2,63.8,29.95,NNW,332,0.0,0.0,92,0.00,,,0.00,Wunderground v.1.13,2013-08-03 09:20:00,
2013-08-03 05:25:00,66.2,63.8,29.95,NNW,331,0.0,0.0,92,0.00,,,0.00,Wunderground v.1.13,2013-08-03 09:25:00,
2013-08-03 05:35:00,66.1,63.7,29.94,NNW,332,0.0,0.0,92,0.00,,,0.00,Wunderground v.1.13,2013-08-03 09:35:00,
2013-08-03 05:40:00,66.1,63.7,29.94,NNW,332,0.0,0.0,92,0.00,,,0.00,Wunderground v.1.13,2013-08-03 09:40:00,
2013-08-03 05:50:00,66.0,63.6,29.95,NNW,332,0.0,0.0,92,0.00,,,0.00,Wunderground v.1.13,2013-08-03 09:50:00,
2013-08-03 05:55:00,66.0,63.9,29.94,NNW,332,0.0,0.0,93,0.00,,,0.00,Wunderground v.1.13,2013-08-03 09:55:00,
2013-08-03 06:05:00,65.9,63.8,29.94,NNW,332,0.0,0.0,93,0.00,,,0.00,Wunderground v.1.13,2013-08-03 10:05:00,
2013-08-03 06:15:00,65.9,63.8,29.94,NNW,332,0.0,0.0,93,0.00,,,0.00,Wunderground v.1.13,2013-08-03 10:15:00,
2013-08-03 06:20:00,65.8,63.7,29.94,NNW,332,0.0,0.0,93,0.00,,,0.00,Wunderground v.1.13,2013-08-03 10:20:00,
2013-08-03 06:30:00,65.7,63.6,29.95,NNW,332,0.0,0.0,93,0.00,,,0.00,Wunderground v.1.13,2013-08-03 10:30:00,
2013-08-03 06:40:00,65.7,63.6,29.94,NNW,332,0.0,0.0,93,0.00,,,0.00,Wunderground v.1.13,2013-08-03 10:40:00,
2013-08-03 06:45:00,65.7,63.6,29.94,NNW,332,0.0,0.0,93,0.00,,,0.00,Wunderground v.1.13,2013-08-03 10:45:00,
2013-08-03 06:55:00,65.6,63.5,29.94,NNW,332,0.0,0.0,93,0.00,,,0.00,Wunderground v.1.13,2013-08-03 10:55:00,
2013-08-03 07:05:00,65.6,63.5,29.94,NNW,332,0.0,0.0,93,0.00,,,0.00,Wunderground v.1.13,2013-08-03 11:05:00,
2013-08-03 07:15:00,65.6,63.5,29.94,NNW,331,0.0,0.0,93,0.00,,,0.00,Wunderground v.1.13,2013-08-03 11:15:00,
2013-08-03 07:25:00,65.7,63.9,29.95,NNW,332,0.0,0.0,94,0.00,,,0.00,Wunderground v.1.13,2013-08-03 11:25:00,
2013-08-03 07:30:00,65.7,63.9,29.95,NNW,332,0.0,0.0,94,0.00,,,0.00,Wunderground v.1.13,2013-08-03 11:30:00,
2013-08-03 07:35:00,65.7,63.9,29.95,NNW,332,0.0,0.0,94,0.00,,,0.00,Wunderground v.1.13,2013-08-03 11:35:00,
2013-08-03 07:45:00,65.8,64.0,29.95,West,281,0.0,3.0,94,0.00,,,0.00,Wunderground v.1.13,2013-08-03 11:45:00,
2013-08-03 07:55:00,65.6,63.8,29.95,West,281,0.0,0.0,94,0.00,,,0.00,Wunderground v.1.13,2013-08-03 11:55:00,
2013-08-03 08:05:00,65.5,63.7,29.95,West,281,0.0,0.0,94,0.00,,,0.00,Wunderground v.1.13,2013-08-03 12:05:00,
2013-08-03 08:15:00,65.4,63.6,29.95,West,281,0.0,0.0,94,0.00,,,0.00,Wunderground v.1.13,2013-08-03 12:15:00,
2013-08-03 08:20:00,65.5,63.7,29.95,West,281,0.0,0.0,94,0.00,,,0.00,Wunderground v.1.13,2013-08-03 12:20:00,
2013-08-03 08:25:00,65.6,63.8,29.95,West,281,0.0,0.0,94,0.00,,,0.00,Wunderground v.1.13,2013-08-03 12:25:00,
2013-08-03 08:35:00,65.9,64.1,29.95,West,281,0.0,0.0,94,0.00,,,0.00,Wunderground v.1.13,2013-08-03 12:35:00,
2013-08-03 08:45:00,66.0,64.2,29.95,West,281,0.0,0.0,94,0.00,,,0.00,Wunderground v.1.13,2013-08-03 12:45:00,
2013-08-03 08:55:00,65.8,64.0,29.95,West,281,0.0,0.0,94,0.00,,,0.00,Wunderground v.1.13,2013-08-03 12:55:00,
2013-08-03 09:00:00,65.8,64.0,29.95,West,281,0.0,0.0,94,0.00,,,0.00,Wunderground v.1.13,2013-08-03 13:00:00,
2013-08-03 09:05:00,65.9,64.1,29.95,West,281,0.0,1.0,94,0.00,,,0.00,Wunderground v.1.13,2013-08-03 13:05:00,
2013-08-03 09:14:00,65.7,63.9,29.95,West,281,0.0,1.0,94,0.00,,,0.00,Wunderground v.1.13,2013-08-03 13:14:00,
2013-08-03 09:20:00,65.6,63.8,29.94,West,281,0.0,1.0,94,0.00,,,0.00,Wunderground v.1.13,2013-08-03 13:20:00,
2013-08-03 09:25:00,65.6,63.8,29.94,West,281,0.0,1.0,94,0.00,,,0.00,Wunderground v.1.13,2013-08-03 13:25:00,
2013-08-03 09:35:00,65.6,63.8,29.95,SSE,163,0.0,1.0,94,0.00,,,0.00,Wunderground v.1.13,2013-08-03 13:35:00,
2013-08-03 09:40:00,65.7,63.9,29.94,SSE,163,0.0,1.0,94,0.00,,,0.00,Wunderground v.1.13,2013-08-03 13:40:00,
2013-08-03 09:50:00,65.9,64.1,29.95,SSE,163,0.0,1.0,94,0.00,,,0.00,Wunderground v.1.13,2013-08-03 13:50:00,
2013-08-03 10:00:00,65.8,63.7,29.94,West,271,0.0,1.0,93,0.00,,,0.00,Wunderground v.1.13,2013-08-03 14:00:00,
2013-08-03 10:05:00,65.7,63.6,29.95,West,271,1.0,5.0,93,0.00,,,0.00,Wunderground v.1.13,2013-08-03 14:05:00,
2013-08-03 10:14:00,65.7,63.6,29.95,SE,137,0.0,5.0,93,0.00,,,0.00,Wunderground v.1.13,2013-08-03 14:14:00,
2013-08-03 10:20:00,65.7,63.6,29.95,SE,140,1.0,1.0,93,0.00,,,0.00,Wunderground v.1.13,2013-08-03 14:20:00,
2013-08-03 10:25:00,65.8,63.7,29.95,SE,140,1.0,1.0,93,0.00,,,0.00,Wunderground v.1.13,2013-08-03 14:25:00,
2013-08-03 10:35:00,66.1,64.0,29.95,SE,140,0.0,5.0,93,0.00,,,0.00,Wunderground v.1.13,2013-08-03 14:35:00,
2013-08-03 10:40:00,66.3,64.2,29.95,SE,140,0.0,5.0,93,0.00,,,0.00,Wunderground v.1.13,2013-08-03 14:40:00,
2013-08-03 10:50:00,66.4,64.3,29.95,SE,140,0.0,5.0,93,0.00,,,0.00,Wunderground v.1.13,2013-08-03 14:50:00,
2013-08-03 11:00:00,66.5,64.4,29.95,WSW,241,0.0,5.0,93,0.00,,,0.00,Wunderground v.1.13,2013-08-03 15:00:00,
2013-08-03 11:05:00,66.6,64.5,29.95,WSW,242,0.0,3.0,93,0.00,,,0.00,Wunderground v.1.13,2013-08-03 15:05:00,
2013-08-03 11:15:00,66.6,64.5,29.94,South,178,1.0,1.0,93,0.00,,,0.00,Wunderground v.1.13,2013-08-03 15:15:00,
2013-08-03 11:25:00,66.6,64.5,29.95,South,176,0.0,3.0,93,0.00,,,0.00,Wunderground v.1.13,2013-08-03 15:25:00,
2013-08-03 11:30:00,66.6,64.5,29.95,South,176,0.0,3.0,93,0.00,,,0.00,Wunderground v.1.13,2013-08-03 15:30:00,
2013-08-03 11:40:00,66.6,64.5,29.95,WSW,252,0.0,3.0,93,0.00,,,0.00,Wunderground v.1.13,2013-08-03 15:40:00,
2013-08-03 11:50:00,66.6,64.5,29.95,South,171,0.0,3.0,93,0.00,,,0.00,Wunderground v.1.13,2013-08-03 15:50:00,
2013-08-03 12:00:00,66.9,65.1,29.95,South,173,0.0,3.0,94,0.00,,,0.00,Wunderground v.1.13,2013-08-03 16:00:00,
2013-08-03 12:05:00,67.0,64.9,29.95,West,272,0.0,2.0,93,0.00,,,0.00,Wunderground v.1.13,2013-08-03 16:05:00,
2013-08-03 12:15:00,67.0,64.9,29.95,WSW,246,1.0,1.0,93,0.00,,,0.00,Wunderground v.1.13,2013-08-03 16:15:00,
2013-08-03 12:25:00,66.9,64.8,29.95,West,275,1.0,2.0,93,0.00,,,0.00,Wunderground v.1.13,2013-08-03 16:25:00,
2013-08-03 12:30:00,67.3,65.5,29.95,SE,131,1.0,1.0,94,0.00,,,0.00,Wunderground v.1.13,2013-08-03 16:30:00,
2013-08-03 12:40:00,67.9,65.8,29.95,WSW,244,1.0,2.0,93,0.00,,,0.00,Wunderground v.1.13,2013-08-03 16:40:00,
2013-08-03 12:45:00,67.9,65.5,29.95,South,178,1.0,2.0,92,0.00,,,0.00,Wunderground v.1.13,2013-08-03 16:45:00,
2013-08-03 12:55:00,68.2,65.8,29.95,SW,229,2.0,2.0,92,0.00,,,0.00,Wunderground v.1.13,2013-08-03 16:55:00,
2013-08-03 13:05:00,68.9,66.2,29.95,West,279,1.0,4.0,91,0.00,,,0.00,Wunderground v.1.13,2013-08-03 17:05:00,
2013-08-03 13:15:00,69.2,66.1,29.95,South,183,1.0,3.0,90,0.00,,,0.00,Wunderground v.1.13,2013-08-03 17:15:00,
2013-08-03 13:25:00,69.6,66.2,29.95,SSW,200,1.0,1.0,89,0.00,,,0.00,Wunderground v.1.13,2013-08-03 17:25:00,
2013-08-03 13:30:00,70.0,66.6,29.94,SSW,209,1.0,3.0,89,0.00,,,0.00,Wunderground v.1.13,2013-08-03 17:30:00,
2013-08-03 13:40:00,71.2,67.5,29.95,SSE,159,3.0,3.0,88,0.00,,,0.00,Wunderground v.1.13,2013-08-03 17:40:00,
2013-08-03 13:45:00,71.3,66.9,29.95,WSW,244,3.0,3.0,86,0.00,,,0.00,Wunderground v.1.13,2013-08-03 17:45:00,
2013-08-03 13:50:00,71.3,66.6,29.95,SW,224,3.0,4.0,85,0.00,,,0.00,Wunderground v.1.13,2013-08-03 17:50:00,
2013-08-03 14:00:00,71.4,67.3,29.94,West,272,3.0,3.0,87,0.00,,,0.00,Wunderground v.1.13,2013-08-03 18:00:00,
2013-08-03 14:05:00,71.8,66.4,29.94,SSE,150,3.0,3.0,83,0.00,,,0.00,Wunderground v.1.13,2013-08-03 18:05:00,
2013-08-03 14:15:00,71.3,66.6,29.94,South,182,3.0,7.0,85,0.00,,,0.00,Wunderground v.1.13,2013-08-03 18:15:00,
2013-08-03 14:20:00,71.1,66.7,29.94,SW,214,3.0,3.0,86,0.00,,,0.00,Wunderground v.1.13,2013-08-03 18:20:00,
2013-08-03 14:30:00,71.7,67.3,29.93,SSW,206,1.0,7.0,86,0.00,,,0.00,Wunderground v.1.13,2013-08-03 18:30:00,
2013-08-03 14:40:00,71.8,66.7,29.93,West,264,2.0,2.0,84,0.00,,,0.00,Wunderground v.1.13,2013-08-03 18:40:00,
2013-08-03 14:45:00,71.9,66.5,29.93,WNW,289,3.0,7.0,83,0.00,,,0.00,Wunderground v.1.13,2013-08-03 18:45:00,
2013-08-03 14:55:00,72.1,66.6,29.93,SW,215,3.0,3.0,83,0.00,,,0.00,Wunderground v.1.13,2013-08-03 18:55:00,
2013-08-03 15:05:00,71.7,66.3,29.92,SSW,201,3.0,3.0,83,0.00,,,0.00,Wunderground v.1.13,2013-08-03 19:05:00,
2013-08-03 15:15:00,71.6,66.5,29.93,SSE,163,2.0,2.0,84,0.00,,,0.00,Wunderground v.1.13,2013-08-03 19:15:00,
2013-08-03 15:20:00,71.8,67.4,29.92,WSW,241,2.0,7.0,86,0.00,,,0.00,Wunderground v.1.13,2013-08-03 19:20:00,
2013-08-03 15:30:00,72.2,66.7,29.92,WSW,246,3.0,3.0,83,0.00,,,0.00,Wunderground v.1.13,2013-08-03 19:30:00,
2013-08-03 15:35:00,72.2,66.4,29.92,SE,137,3.0,3.0,82,0.00,,,0.00,Wunderground v.1.13,2013-08-03 19:35:00,
2013-08-03 15:45:00,72.6,67.1,29.92,SSE,154,3.0,3.0,83,0.00,,,0.00,Wunderground v.1.13,2013-08-03 19:45:00,
2013-08-03 15:55:00,73.2,67.0,29.91,WNW,286,3.0,7.0,81,0.00,,,0.00,Wunderground v.1.13,2013-08-03 19:55:00,
2013-08-03 16:00:00,73.4,67.6,29.91,West,279,4.0,7.0,82,0.00,,,0.00,Wunderground v.1.13,2013-08-03 20:00:00,
2013-08-03 16:05:00,73.7,67.1,29.91,West,278,3.0,9.0,80,0.00,,,0.00,Wunderground v.1.13,2013-08-03 20:05:00,
2013-08-03 16:15:00,74.0,67.4,29.91,SSW,200,3.0,3.0,80,0.00,,,0.00,Wunderground v.1.13,2013-08-03 20:15:00,
2013-08-03 16:20:00,74.4,67.8,29.91,WSW,245,2.0,9.0,80,0.00,,,0.00,Wunderground v.1.13,2013-08-03 20:20:00,
2013-08-03 16:29:00,75.1,67.4,29.90,WSW,257,3.0,3.0,77,0.00,,,0.00,Wunderground v.1.13,2013-08-03 20:29:00,
2013-08-03 16:35:00,75.2,67.9,29.90,SW,234,3.0,9.0,78,0.00,,,0.00,Wunderground v.1.13,2013-08-03 20:35:00,
2013-08-03 16:40:00,75.2,67.5,29.90,SE,146,2.0,9.0,77,0.00,,,0.00,Wunderground v.1.13,2013-08-03 20:40:00,
2013-08-03 16:45:00,75.3,68.0,29.90,NW,309,3.0,9.0,78,0.00,,,0.00,Wunderground v.1.13,2013-08-03 20:45:00,
2013-08-03 16:50:00,75.3,68.0,29.90,West,276,3.0,9.0,78,0.00,,,0.00,Wunderground v.1.13,2013-08-03 20:50:00,
2013-08-03 17:00:00,75.6,68.3,29.90,SE,144,2.0,9.0,78,0.00,,,0.00,Wunderground v.1.13,2013-08-03 21:00:00,
2013-08-03 17:05:00,75.4,68.4,29.90,SSW,202,2.0,2.0,79,0.00,,,0.00,Wunderground v.1.13,2013-08-03 21:05:00,
2013-08-03 17:15:00,76.0,67.9,29.90,SE,146,2.0,2.0,76,0.00,,,0.00,Wunderground v.1.13,2013-08-03 21:15:00,
2013-08-03 17:25:00,75.4,67.7,29.90,WSW,253,1.0,4.0,77,0.00,,,0.00,Wunderground v.1.13,2013-08-03 21:25:00,
2013-08-03 17:35:00,74.6,68.0,29.91,NNW,330,1.0,4.0,80,0.00,,,0.00,Wunderground v.1.13,2013-08-03 21:35:00,
2013-08-03 17:40:00,74.4,67.5,29.91,WNW,296,1.0,4.0,79,0.00,,,0.00,Wunderground v.1.13,2013-08-03 21:40:00,
2013-08-03 17:50:00,74.1,67.9,29.91,WNW,288,1.0,4.0,81,0.00,,,0.00,Wunderground v.1.13,2013-08-03 21:50:00,
2013-08-03 18:00:00,74.4,68.5,29.91,WNW,288,1.0,1.0,82,0.00,,,0.00,Wunderground v.1.13,2013-08-03 22:00:00,
2013-08-03 18:05:00,74.6,68.7,29.90,WNW,287,0.0,2.0,82,0.00,,,0.00,Wunderground v.1.13,2013-08-03 22:05:00,
2013-08-03 18:15:00,75.4,69.5,29.90,WSW,252,0.0,2.0,82,0.00,,,0.00,Wunderground v.1.13,2013-08-03 22:15:00,
2013-08-03 18:25:00,76.0,69.4,29.91,WNW,282,0.0,2.0,80,0.00,,,0.00,Wunderground v.1.13,2013-08-03 22:25:00,
2013-08-03 18:35:00,75.9,69.6,29.91,SSE,148,0.0,2.0,81,0.00,,,0.00,Wunderground v.1.13,2013-08-03 22:35:00,
2013-08-03 18:40:00,75.8,69.9,29.91,SSE,148,0.0,2.0,82,0.00,,,0.00,Wunderground v.1.13,2013-08-03 22:40:00,
2013-08-03 18:50:00,75.8,69.9,29.91,SSE,148,0.0,2.0,82,0.00,,,0.00,Wunderground v.1.13,2013-08-03 22:50:00,
2013-08-03 19:00:00,75.4,69.5,29.91,SSE,148,0.0,2.0,82,0.00,,,0.00,Wunderground v.1.13,2013-08-03 23:00:00,
2013-08-03 19:05:00,75.1,69.6,29.91,SSE,148,0.0,1.0,83,0.00,,,0.00,Wunderground v.1.13,2013-08-03 23:05:00,
2013-08-03 19:15:00,74.9,69.7,29.91,SSE,148,0.0,1.0,84,0.00,,,0.00,Wunderground v.1.13,2013-08-03 23:15:00,
2013-08-03 19:20:00,74.8,69.6,29.91,SSE,148,0.0,1.0,84,0.00,,,0.00,Wunderground v.1.13,2013-08-03 23:20:00,
2013-08-03 19:30:00,74.0,66.7,29.91,SSE,148,0.0,1.0,78,0.00,,,0.00,Wunderground v.1.13,2013-08-03 23:30:00,
2013-08-03 19:35:00,73.2,65.9,29.91,SSE,148,0.0,1.0,78,0.00,,,0.00,Wunderground v.1.13,2013-08-03 23:35:00,
2013-08-03 19:45:00,71.8,64.9,29.92,SSE,148,1.0,1.0,79,0.00,,,0.00,Wunderground v.1.13,2013-08-03 23:45:00,
2013-08-03 19:55:00,70.9,64.4,29.93,SSE,148,0.0,1.0,80,0.00,,,0.00,Wunderground v.1.13,2013-08-03 23:55:00,
2013-08-03 20:05:00,70.0,63.9,29.93,SSE,148,0.0,1.0,81,0.00,,,0.00,Wunderground v.1.13,2013-08-04 00:05:00,
2013-08-03 20:15:00,69.3,63.2,29.93,SSE,148,0.0,1.0,81,0.00,,,0.00,Wunderground v.1.13,2013-08-04 00:15:00,
2013-08-03 20:25:00,68.9,63.2,29.93,SSE,148,0.0,1.0,82,0.00,,,0.00,Wunderground v.1.13,2013-08-04 00:25:00,
2013-08-03 20:35:00,68.4,63.0,29.93,SSE,148,0.0,1.0,83,0.00,,,0.00,Wunderground v.1.13,2013-08-04 00:35:00,
2013-08-03 20:40:00,68.1,62.7,29.94,SSE,148,0.0,1.0,83,0.00,,,0.00,Wunderground v.1.13,2013-08-04 00:40:00,
2013-08-03 20:50:00,67.5,62.5,29.94,SSE,148,0.0,1.0,84,0.00,,,0.00,Wunderground v.1.13,2013-08-04 00:50:00,
2013-08-03 21:00:00,67.0,62.0,29.95,SSE,148,0.0,1.0,84,0.00,,,0.00,Wunderground v.1.13,2013-08-04 01:00:00,
2013-08-03 21:05:00,66.7,61.7,29.95,SSE,148,0.0,0.0,84,0.00,,,0.00,Wunderground v.1.13,2013-08-04 01:05:00,
2013-08-03 21:15:00,66.2,61.6,29.94,SSE,148,0.0,0.0,85,0.00,,,0.00,Wunderground v.1.13,2013-08-04 01:15:00,
2013-08-03 21:20:00,65.9,60.9,29.95,SSE,148,0.0,0.0,84,0.00,,,0.00,Wunderground v.1.13,2013-08-04 01:20:00,
2013-08-03 21:30:00,65.6,61.0,29.95,SSE,148,0.0,0.0,85,0.00,,,0.00,Wunderground v.1.13,2013-08-04 01:30:00,
2013-08-03 21:35:00,65.4,60.8,29.95,SSE,148,0.0,0.0,85,0.00,,,0.00,Wunderground v.1.13,2013-08-04 01:35:00,
2013-08-03 21:40:00,65.3,60.7,29.95,SSE,148,0.0,0.0,85,0.00,,,0.00,Wunderground v.1.13,2013-08-04 01:40:00,
2013-08-03 21:50:00,64.9,60.6,29.95,SSE,148,0.0,0.0,86,0.00,,,0.00,Wunderground v.1.13,2013-08-04 01:50:00,
2013-08-03 21:55:00,64.8,60.5,29.95,SSE,148,0.0,0.0,86,0.00,,,0.00,Wunderground v.1.13,2013-08-04 01:55:00,
2013-08-03 22:00:00,64.6,60.3,29.96,SSE,148,0.0,0.0,86,0.00,,,0.00,Wunderground v.1.13,2013-08-04 02:00:00,
2013-08-03 22:05:00,64.5,60.2,29.96,SSE,148,0.0,0.0,86,0.00,,,0.00,Wunderground v.1.13,2013-08-04 02:05:00,
2013-08-03 22:15:00,64.2,60.2,29.96,SSE,148,0.0,0.0,87,0.00,,,0.00,Wunderground v.1.13,2013-08-04 02:15:00,
2013-08-03 22:20:00,64.1,60.2,29.96,SSE,148,0.0,0.0,87,0.00,,,0.00,Wunderground v.1.13,2013-08-04 02:20:00,
2013-08-03 22:30:00,63.6,59.7,29.96,SSE,148,0.0,0.0,87,0.00,,,0.00,Wunderground v.1.13,2013-08-04 02:30:00,
2013-08-03 22:35:00,63.4,59.5,29.96,SSE,148,0.0,0.0,87,0.00,,,0.00,Wunderground v.1.13,2013-08-04 02:35:00,
2013-08-03 22:40:00,63.1,59.2,29.96,SSE,148,0.0,0.0,87,0.00,,,0.00,Wunderground v.1.13,2013-08-04 02:40:00,
2013-08-03 22:45:00,62.8,58.9,29.96,SSE,148,0.0,0.0,87,0.00,,,0.00,Wunderground v.1.13,2013-08-04 02:45:00,
2013-08-03 22:50:00,62.5,58.6,29.96,SSE,148,0.0,0.0,87,0.00,,,0.00,Wunderground v.1.13,2013-08-04 02:50:00,
2013-08-03 22:55:00,62.2,58.3,29.97,SSE,148,0.0,0.0,87,0.00,,,0.00,Wunderground v.1.13,2013-08-04 02:55:00,
2013-08-03 23:05:00,61.8,57.9,29.97,SSE,148,0.0,0.0,87,0.00,,,0.00,Wunderground v.1.13,2013-08-04 03:05:00,
2013-08-03 23:15:00,61.5,57.6,29.97,SSE,148,0.0,0.0,87,0.00,,,0.00,Wunderground v.1.13,2013-08-04 03:15:00,
2013-08-03 23:20:00,61.3,57.4,29.97,SSE,148,0.0,0.0,87,0.00,,,0.00,Wunderground v.1.13,2013-08-04 03:20:00,
2013-08-03 23:30:00,61.0,57.1,29.97,SSE,148,0.0,0.0,87,0.00,,,0.00,Wunderground v.1.13,2013-08-04 03:30:00,
2013-08-03 23:35:00,60.9,57.3,29.97,SSE,148,0.0,0.0,88,0.00,,,0.00,Wunderground v.1.13,2013-08-04 03:35:00,
2013-08-03 23:45:00,60.8,57.5,29.97,SSE,148,0.0,0.0,89,0.00,,,0.00,Wunderground v.1.13,2013-08-04 03:45:00,
2013-08-03 23:55:00,60.7,57.4,29.97,SSE,148,0.0,0.0,89,0.00,,,0.00,Wunderground v.1.13,2013-08-04 03:55:00,